Weather History for Lexington, KY

Change the Weather History Date:

Thursday, February 20, 2014

  Actual Average Record
Temperature  
Mean Temperature 58 °F 38 °F  
Max Temperature 70 °F 47 °F 72 °F (1997)
Min Temperature 45 °F 29 °F 0 °F (1896)
Degree Days  
Heating Degree Days 7 27  
Month to date heating degree days 666 583  
Since 1 July heating degree days 3600 3366  
Cooling Degree Days 0 0  
Month to date cooling degree days 0 0  
Year to date cooling degree days 0 0  
Growing Degree Days 8 (Base 50)    
Moisture  
Dew Point 49 °F    
Average Humidity 67    
Maximum Humidity 84    
Minimum Humidity 50    
Precipitation  
Precipitation 0.43 in 0.11 in 1.22 in (1897)
Month to date precipitation 4.32 2.26  
Year to date precipitation 6.63 5.46  
Snow  
Snow 0.00 in 0.10 in 5.00 in (1927)
Month to date snowfall 8.3 3.6  
Since 1 July snowfall 18.9 10.3  
Snow Depth 0.00 in    
Sea Level Pressure  
Sea Level Pressure 29.78 in    
Wind  
Wind Speed 18 mph (South)    
Max Wind Speed 32 mph    
Max Gust Speed 45 mph    
Visibility 9 miles    
Events Rain , Thunderstorm    
T = Trace of Precipitation, MM = Missing Value Source: NWS Daily Summary

Daily Weather History Graph

Daily Weather History Graph

Search for Another Location

Airport:

Trip Planner

Search our weather history database for the weather conditions in past years. The results will help you decide how hot, cold, wet, or windy it might be!

Date:

Astronomy

Feb. 20, 2014 Rise Set
Actual Time 7:22 AM EST 6:22 PM EST
Civil Twilight 6:55 AM EST 6:49 PM EST
Nautical Twilight 6:24 AM EST 7:19 PM EST
Astronomical Twilight 5:54 AM EST 7:50 PM EST
Moon No Moon Rise 10:10 AM EST (2/20)
Length of Visible Light 11h 53m
Length of Day
11h 00m
Waning Gibbous, 71% of the Moon is Illuminated
Feb 20
Waning Gibbous
Feb 22
Last Quarter
Mar 1
New
Mar 8
First Quarter
Mar 16
Full

Hourly Weather History & Observations

Time (EST) Temp. Windchill Dew Point Humidity Pressure Visibility Wind Dir Wind Speed Gust Speed Precip Events Conditions
12:54 AM 46.0 °F 42.5 °F 32.0 °F 58% 30.01 in 10.0 mi ESE 6.9 mph - N/A   Clear
1:54 AM 46.0 °F 40.6 °F 32.0 °F 58% 30.00 in 10.0 mi ESE 11.5 mph - N/A   Partly Cloudy
2:54 AM 46.0 °F 40.6 °F 30.9 °F 56% 29.96 in 10.0 mi ESE 11.5 mph - N/A   Clear
3:54 AM 46.9 °F - 30.0 °F 52% 29.94 in 10.0 mi SE 13.8 mph - N/A   Clear
4:54 AM 48.0 °F - 30.9 °F 52% 29.91 in 10.0 mi SE 12.7 mph - N/A   Overcast
5:54 AM 48.0 °F - 33.1 °F 56% 29.89 in 10.0 mi SE 11.5 mph - N/A   Overcast
6:54 AM 50.0 °F - 37.0 °F 61% 29.87 in 10.0 mi SSE 12.7 mph - N/A   Mostly Cloudy
7:54 AM 53.1 °F - 43.0 °F 69% 29.88 in 10.0 mi South 15.0 mph - N/A   Scattered Clouds
8:54 AM 55.9 °F - 48.9 °F 77% 29.87 in 10.0 mi South 16.1 mph - N/A   Scattered Clouds
9:23 AM 57.9 °F - 51.1 °F 78% 29.88 in 10.0 mi South 17.3 mph 25.3 mph N/A   Mostly Cloudy
9:54 AM 60.1 °F - 52.0 °F 75% 29.86 in 10.0 mi South 16.1 mph 23.0 mph N/A   Mostly Cloudy
10:15 AM 61.0 °F - 53.1 °F 75% 29.86 in 10.0 mi South 17.3 mph 23.0 mph N/A   Mostly Cloudy
10:51 AM 64.4 °F - 55.4 °F 73% 29.84 in 10.0 mi South 17.3 mph 24.2 mph N/A   Mostly Cloudy
10:54 AM 64.0 °F - 55.9 °F 75% 29.84 in 10.0 mi South 16.1 mph - N/A   Mostly Cloudy
11:32 AM 64.9 °F - 55.9 °F 73% 29.84 in 10.0 mi SSW 20.7 mph 32.2 mph N/A   Overcast
11:54 AM 66.0 °F - 55.9 °F 70% 29.83 in 10.0 mi SSW 20.7 mph 29.9 mph N/A   Overcast
12:54 PM 68.0 °F - 54.0 °F 61% 29.80 in 10.0 mi South 16.1 mph 28.8 mph N/A   Overcast
1:54 PM 69.1 °F - 53.1 °F 57% 29.74 in 10.0 mi South 27.6 mph 39.1 mph N/A   Mostly Cloudy
2:54 PM 69.1 °F - 52.0 °F 54% 29.73 in 10.0 mi South 20.7 mph 36.8 mph N/A   Scattered Clouds
3:54 PM 70.0 °F - 52.0 °F 53% 29.71 in 10.0 mi SSW 21.9 mph 34.5 mph N/A   Partly Cloudy
4:54 PM 70.0 °F - 52.0 °F 53% 29.69 in 10.0 mi South 24.2 mph 36.8 mph N/A   Clear
5:54 PM 70.0 °F - 53.1 °F 55% 29.65 in 10.0 mi South 25.3 mph 35.7 mph N/A   Clear
6:54 PM 66.9 °F - 55.9 °F 68% 29.67 in 10.0 mi South 25.3 mph 35.7 mph N/A   Mostly Cloudy
7:54 PM 66.0 °F - 55.9 °F 70% 29.67 in 10.0 mi South 20.7 mph 26.5 mph N/A   Overcast
8:54 PM 66.0 °F - 55.9 °F 70% 29.63 in 10.0 mi South 18.4 mph - 0.00 in   Overcast
9:54 PM 66.0 °F - 55.9 °F 70% 29.60 in 10.0 mi South 23.0 mph 29.9 mph 0.00 in Rain , Thunderstorm Light Rain
10:21 PM 63.0 °F - 57.0 °F 81% 29.64 in 5.0 mi South 19.6 mph 25.3 mph 0.05 in Rain , Thunderstorm Thunderstorms and Rain
10:54 PM 62.1 °F - 57.9 °F 86% 29.60 in 5.0 mi South 17.3 mph 29.9 mph 0.17 in Rain , Thunderstorm Rain
11:16 PM 61.0 °F - 57.0 °F 87% 29.60 in 4.0 mi South 18.4 mph 34.5 mph 0.10 in Rain , Thunderstorm Heavy Thunderstorms and Rain
11:37 PM 60.1 °F - 57.0 °F 90% 29.61 in 4.0 mi SSW 23.0 mph 28.8 mph 0.18 in Rain , Thunderstorm Heavy Rain
11:45 PM 60.1 °F - 57.0 °F 90% 29.59 in 6.0 mi SSW 23.0 mph 28.8 mph 0.22 in Rain , Thunderstorm Rain
11:54 PM 60.1 °F - 55.9 °F 86% 29.58 in 6.0 mi SSW 23.0 mph 28.8 mph 0.25 in Rain , Thunderstorm Rain